Погода в Рио-Куарто

Аргентина     33°07′28″S   64°21′07″W
темп.,
°C
ветер,
м/с
пор.,
м/с
влажн.,
%
обл.,
%
осадки,
мм/ч
давл.,
гПа
погр.,
м
15 августа, пн
пн1500:00+14юз49670 0.1 1005193
03:00+13ююз714755 0.1 1007516
06:00+12ю71354100 0.0 1009984
09:00+9ююз7144494 0.0 10141082
12:00+12ю811220 0.0 10161554
15:00+13ю56220 0.0 10131591
18:00+12ююв23250 0.0 1012477
21:00+9с3329100 0.0 101323
16 августа, вт
вт1600:00+8ссв49352 0.0 1011166
03:00+8с715325 0.0 1009382
06:00+7ссв512331 0.0 1008260
09:00+7с36385 0.0 1009180
12:00+15ссв33261 0.0 1009506
15:00+18св33235 0.0 1005808
18:00+17в222873 0.0 100325
21:00+12ссв310395 0.0 1005165
17 августа, ср
ср1700:00+10св22464 0.0 100717
03:00+8ююв33563 0.0 100936
06:00+6ю6158423 0.0 1014529
09:00+7ююз497657 0.0 1017468
12:00+12ю4658100 0.0 1017714
15:00+13ю4530100 0.0 10151217
18:00+12ю46240 0.0 1016359
21:00+7ю33334 0.0 101926
18 августа, чт
чт1800:00+7юз4113166 0.0 1023354
03:00+5зюз474060 0.0 1025128
06:00+4зюз412560 0.0 1026270
09:00+5юз510520 0.0 1031635
12:00+9ююз68300 0.0 10321718
15:00+11ююз57230 0.0 10301845
18:00+11ю45250 0.0 1029553
21:00+6юв11330 0.0 103210
19 августа, пт
пт1900:00+5сз33360 0.0 103225
03:00+4ссз34370 0.0 103142
06:00+3с47390 0.0 1030103
09:00+5с511360 0.0 1031293
12:00+13с79230 0.0 1029871
15:00+15ссв78190 0.0 10251223
18:00+14ссв711230 0.0 1023764
21:00+10ссв715260 0.0 1025482